Location: ??????
(38.1303°N, 24.0039°E)
Time: 03:37:07
(UTC+00:00)

IRS-1D - Pass Details

Date: 20 June 2021
Orbit: 739 x 817 km, 98.6° (Epoch: 05 August)

Event Time Altitude Azimuth Distance (km) Brightness Sun altitude
Rises 00:21:28 0° 19° (NNE) 3,265 8.2 -22.7°
Reaches altitude 10° 00:23:53 10° 24° (NNE) 2,321 7.1 -22.5°
Maximum altitude 00:28:50 50° 100° (E) 964 4.1 -22.0°
Enters shadow 00:30:46 32° 155° (SSE) 1,265 4.3 -21.8°
